Tracking 30918 objects as of 2-Jul-2025
HD Live streaming from Space Station
objects crossing your sky now

BREEZE-M DEB (TANK)

Track BREEZE-M DEB (TANK) now!
10-day predictions


NORAD ID: 36501
Int'l Code: 2010-010C
Perigee: 311.6 km
Apogee: 12,707.4 km
Inclination: 49.6 °
Period: 242.5 minutes
Semi major axis: 12880 km
RCS: 5.0119 m2 (large)
Launch date: March 20, 2010
Source: Commonwealth of Independent States (former USSR) (CIS)
Launch site: TYURATAM MISSILE AND SPACE COMPLEX (TTMTR)

Note: This is SATELLITE DEBRIS
Your satellite tracking list
BREEZE-M DEB
Track 1 satellite(s)




NASA's NSSDC Master Catalog

Two Line Element Set (TLE):
1 36501U 10010C   25182.71030029  .00003168  00000-0  48201-3 0  9993
2 36501  49.6419 159.4793 4811872 247.0407  56.2376  5.93887751321898
Source of the keplerian elements: AFSPC